Time,TemperatureF,DewpointF,PressureIn,WindDirection,WindDirectionDegrees,WindSpeedMPH,WindSpeedGustMPH,Humidity,HourlyPrecipIn,Conditions,Clouds,dailyrainin,SoftwareType,DateUTC
2013-01-08 00:09:00,36.4,31.0,30.37,SE,134,0.0,-999.0,80,-99.99,,,0.05,weatherlink.com 1.10,2013-01-08 06:09:00,
2013-01-08 00:24:00,35.7,30.0,30.38,SE,134,0.0,-999.0,80,-99.99,,,0.05,weatherlink.com 1.10,2013-01-08 06:24:00,
2013-01-08 00:39:00,35.8,31.0,30.38,SE,134,0.0,-999.0,82,-99.99,,,0.05,weatherlink.com 1.10,2013-01-08 06:39:00,
2013-01-08 00:54:00,36.2,31.0,30.38,SE,134,0.0,-999.0,81,-99.99,,,0.05,weatherlink.com 1.10,2013-01-08 06:54:00,
2013-01-08 01:09:00,35.0,30.0,30.37,SE,134,2.0,-999.0,82,-99.99,,,0.05,weatherlink.com 1.10,2013-01-08 07:09:00,
2013-01-08 01:24:00,35.1,30.0,30.36,SE,130,2.0,-999.0,83,-99.99,,,0.05,weatherlink.com 1.10,2013-01-08 07:24:00,
2013-01-08 01:39:00,36.2,31.0,30.36,SE,130,1.0,-999.0,82,-99.99,,,0.05,weatherlink.com 1.10,2013-01-08 07:39:00,
2013-01-08 01:54:00,37.0,32.0,30.36,SE,130,2.0,-999.0,81,-99.99,,,0.05,weatherlink.com 1.10,2013-01-08 07:54:00,
2013-01-08 02:09:00,37.9,32.0,30.36,SE,132,4.0,-999.0,79,-99.99,,,0.05,weatherlink.com 1.10,2013-01-08 08:09:00,
2013-01-08 02:24:00,38.6,32.0,30.36,SE,140,4.0,-999.0,78,-99.99,,,0.05,weatherlink.com 1.10,2013-01-08 08:24:00,
2013-01-08 02:39:00,38.6,32.0,30.36,SE,139,5.0,-999.0,78,-99.99,,,0.05,weatherlink.com 1.10,2013-01-08 08:39:00,
2013-01-08 02:54:00,38.8,33.0,30.36,SE,140,2.0,-999.0,78,-99.99,,,0.06,weatherlink.com 1.10,2013-01-08 08:54:00,
2013-01-08 03:09:00,38.4,32.0,30.37,SE,140,0.0,-999.0,79,-99.99,,,0.06,weatherlink.com 1.10,2013-01-08 09:09:00,
2013-01-08 03:24:00,37.6,32.0,30.36,SE,138,2.0,-999.0,81,-99.99,,,0.06,weatherlink.com 1.10,2013-01-08 09:24:00,
2013-01-08 03:39:00,37.8,32.0,30.36,SE,132,1.0,-999.0,80,-99.99,,,0.06,weatherlink.com 1.10,2013-01-08 09:39:00,
2013-01-08 03:54:00,37.9,32.0,30.37,SE,132,1.0,-999.0,80,-99.99,,,0.06,weatherlink.com 1.10,2013-01-08 09:54:00,
2013-01-08 04:09:00,37.9,32.0,30.36,SE,140,4.0,-999.0,80,-99.99,,,0.06,weatherlink.com 1.10,2013-01-08 10:09:00,
2013-01-08 04:24:00,38.3,32.0,30.37,SE,142,2.0,-999.0,79,-99.99,,,0.06,weatherlink.com 1.10,2013-01-08 10:24:00,
2013-01-08 04:39:00,38.4,33.0,30.36,SE,131,2.0,-999.0,80,-99.99,,,0.06,weatherlink.com 1.10,2013-01-08 10:39:00,
2013-01-08 04:54:00,38.3,33.0,30.37,SE,128,1.0,-999.0,81,-99.99,,,0.06,weatherlink.com 1.10,2013-01-08 10:54:00,
2013-01-08 05:09:00,38.2,33.0,30.36,SE,128,1.0,-999.0,81,-99.99,,,0.06,weatherlink.com 1.10,2013-01-08 11:09:00,
2013-01-08 05:24:00,38.5,33.0,30.38,SE,130,4.0,-999.0,80,-99.99,,,0.06,weatherlink.com 1.10,2013-01-08 11:24:00,
2013-01-08 05:39:00,38.7,33.0,30.38,SE,130,2.0,-999.0,80,-99.99,,,0.06,weatherlink.com 1.10,2013-01-08 11:39:00,
2013-01-08 05:54:00,38.7,33.0,30.39,SE,139,5.0,-999.0,80,-99.99,,,0.06,weatherlink.com 1.10,2013-01-08 11:54:00,
2013-01-08 06:09:00,38.5,33.0,30.39,SE,138,2.0,-999.0,80,-99.99,,,0.06,weatherlink.com 1.10,2013-01-08 12:09:00,
2013-01-08 06:24:00,38.2,33.0,30.40,SE,138,1.0,-999.0,81,-99.99,,,0.06,weatherlink.com 1.10,2013-01-08 12:24:00,
2013-01-08 06:39:00,38.4,33.0,30.40,SE,138,2.0,-999.0,81,-99.99,,,0.06,weatherlink.com 1.10,2013-01-08 12:39:00,
2013-01-08 06:54:00,38.4,33.0,30.40,SE,144,1.0,-999.0,81,-99.99,,,0.06,weatherlink.com 1.10,2013-01-08 12:54:00,
2013-01-08 07:09:00,38.4,33.0,30.41,SE,137,0.0,-999.0,81,-99.99,,,0.06,weatherlink.com 1.10,2013-01-08 13:09:00,
2013-01-08 07:24:00,38.7,33.0,30.41,SE,137,2.0,-999.0,81,-99.99,,,0.06,weatherlink.com 1.10,2013-01-08 13:24:00,
2013-01-08 07:39:00,39.7,34.0,30.41,East,88,6.0,-999.0,80,-99.99,,,0.06,weatherlink.com 1.10,2013-01-08 13:39:00,
2013-01-08 07:54:00,40.9,35.0,30.42,SE,146,6.0,-999.0,78,-99.99,,,0.06,weatherlink.com 1.10,2013-01-08 13:54:00,
2013-01-08 08:09:00,42.1,35.0,30.42,SE,126,1.0,-999.0,77,-99.99,,,0.06,weatherlink.com 1.10,2013-01-08 14:09:00,
2013-01-08 08:24:00,43.1,36.0,30.42,SE,140,5.0,-999.0,75,-99.99,,,0.06,weatherlink.com 1.10,2013-01-08 14:24:00,
2013-01-08 08:39:00,43.6,36.0,30.43,SE,130,1.0,-999.0,74,-99.99,,,0.06,weatherlink.com 1.10,2013-01-08 14:39:00,
2013-01-08 08:54:00,44.4,36.0,30.44,SE,132,5.0,-999.0,73,-99.99,,,0.06,weatherlink.com 1.10,2013-01-08 14:54:00,
2013-01-08 09:09:00,44.7,36.0,30.45,SSE,148,6.0,-999.0,72,-99.99,,,0.06,weatherlink.com 1.10,2013-01-08 15:09:00,
2013-01-08 09:24:00,45.4,36.0,30.44,SE,129,5.0,-999.0,71,-99.99,,,0.06,weatherlink.com 1.10,2013-01-08 15:24:00,
2013-01-08 09:39:00,46.3,37.0,30.44,SE,141,5.0,-999.0,70,-99.99,,,0.06,weatherlink.com 1.10,2013-01-08 15:39:00,
2013-01-08 09:54:00,47.0,37.0,30.44,ESE,119,4.0,-999.0,69,-99.99,,,0.00,weatherlink.com 1.10,2013-01-08 15:54:00,
2013-01-08 10:09:00,47.5,38.0,30.44,SE,141,0.0,-999.0,69,-99.99,,,0.00,weatherlink.com 1.10,2013-01-08 16:09:00,
2013-01-08 10:24:00,48.5,39.0,30.43,SE,142,4.0,-999.0,69,-99.99,,,0.00,weatherlink.com 1.10,2013-01-08 16:24:00,
2013-01-08 10:39:00,48.9,39.0,30.42,ESE,122,5.0,-999.0,68,-99.99,,,0.00,weatherlink.com 1.10,2013-01-08 16:39:00,
2013-01-08 10:54:00,50.0,39.0,30.42,SE,146,0.0,-999.0,67,-99.99,,,0.00,weatherlink.com 1.10,2013-01-08 16:54:00,
2013-01-08 11:09:00,51.4,40.0,30.41,ESE,119,5.0,-999.0,66,-99.99,,,0.00,weatherlink.com 1.10,2013-01-08 17:09:00,
2013-01-08 11:24:00,52.2,40.0,30.40,SE,140,6.0,-999.0,64,-99.99,,,0.00,weatherlink.com 1.10,2013-01-08 17:24:00,
2013-01-08 11:39:00,52.5,41.0,30.39,SE,139,5.0,-999.0,66,-99.99,,,0.00,weatherlink.com 1.10,2013-01-08 17:39:00,
2013-01-08 11:55:00,52.8,41.0,30.39,SSE,163,4.0,-999.0,65,-99.99,,,0.01,weatherlink.com 1.10,2013-01-08 17:55:00,
2013-01-08 12:10:00,55.0,43.0,30.39,South,184,0.0,-999.0,64,-99.99,,,0.01,weatherlink.com 1.10,2013-01-08 18:10:00,
2013-01-08 12:25:00,54.4,42.0,30.37,SSE,160,2.0,-999.0,64,-99.99,,,0.01,weatherlink.com 1.10,2013-01-08 18:25:00,
2013-01-08 12:40:00,54.9,42.0,30.37,ESE,119,2.0,-999.0,63,-99.99,,,0.01,weatherlink.com 1.10,2013-01-08 18:40:00,
2013-01-08 12:55:00,55.1,43.0,30.36,SE,126,1.0,-999.0,65,-99.99,,,0.01,weatherlink.com 1.10,2013-01-08 18:55:00,
2013-01-08 13:10:00,55.0,44.0,30.35,SE,144,6.0,-999.0,66,-99.99,,,0.01,weatherlink.com 1.10,2013-01-08 19:10:00,
2013-01-08 13:25:00,55.9,44.0,30.35,SSE,158,6.0,-999.0,65,-99.99,,,0.01,weatherlink.com 1.10,2013-01-08 19:25:00,
2013-01-08 13:40:00,56.3,45.0,30.35,SSE,167,0.0,-999.0,66,-99.99,,,0.01,weatherlink.com 1.10,2013-01-08 19:40:00,
2013-01-08 13:55:00,57.1,45.0,30.35,SE,134,2.0,-999.0,64,-99.99,,,0.01,weatherlink.com 1.10,2013-01-08 19:55:00,
2013-01-08 14:10:00,57.0,45.0,30.34,SSE,150,8.0,-999.0,65,-99.99,,,0.01,weatherlink.com 1.10,2013-01-08 20:10:00,
2013-01-08 14:25:00,57.0,46.0,30.34,SE,144,6.0,-999.0,67,-99.99,,,0.01,weatherlink.com 1.10,2013-01-08 20:25:00,
2013-01-08 14:55:00,56.8,45.0,30.35,SE,146,4.0,-999.0,65,-99.99,,,0.01,weatherlink.com 1.10,2013-01-08 20:55:00,
2013-01-08 15:10:00,56.2,45.0,30.35,SE,146,2.0,-999.0,67,-99.99,,,0.01,weatherlink.com 1.10,2013-01-08 21:10:00,
2013-01-08 15:25:00,56.3,45.0,30.35,SE,146,4.0,-999.0,66,-99.99,,,0.01,weatherlink.com 1.10,2013-01-08 21:25:00,
2013-01-08 15:40:00,56.4,45.0,30.34,ESE,120,8.0,-999.0,66,-99.99,,,0.02,weatherlink.com 1.10,2013-01-08 21:40:00,
2013-01-08 15:55:00,55.6,45.0,30.33,SE,146,2.0,-999.0,67,-99.99,,,0.02,weatherlink.com 1.10,2013-01-08 21:55:00,
2013-01-08 16:10:00,55.0,45.0,30.34,SE,137,1.0,-999.0,68,-99.99,,,0.02,weatherlink.com 1.10,2013-01-08 22:10:00,
2013-01-08 16:25:00,54.1,45.0,30.34,SE,146,5.0,-999.0,70,-99.99,,,0.02,weatherlink.com 1.10,2013-01-08 22:25:00,
2013-01-08 16:40:00,53.4,44.0,30.34,SE,143,2.0,-999.0,71,-99.99,,,0.02,weatherlink.com 1.10,2013-01-08 22:40:00,
2013-01-08 16:55:00,52.5,44.0,30.35,SE,143,1.0,-999.0,72,-99.99,,,0.02,weatherlink.com 1.10,2013-01-08 22:55:00,
2013-01-08 17:10:00,51.6,43.0,30.36,SE,138,2.0,-999.0,73,-99.99,,,0.02,weatherlink.com 1.10,2013-01-08 23:10:00,
2013-01-08 17:25:00,51.3,43.0,30.36,SE,138,1.0,-999.0,74,-99.99,,,0.02,weatherlink.com 1.10,2013-01-08 23:25:00,
2013-01-08 17:40:00,51.1,43.0,30.35,SE,132,2.0,-999.0,74,-99.99,,,0.02,weatherlink.com 1.10,2013-01-08 23:40:00,
2013-01-08 17:55:00,50.6,43.0,30.35,SE,132,2.0,-999.0,76,-99.99,,,0.02,weatherlink.com 1.10,2013-01-08 23:55:00,
2013-01-08 18:10:00,50.7,43.0,30.35,SSE,149,4.0,-999.0,76,-99.99,,,0.02,weatherlink.com 1.10,2013-01-09 00:10:00,
2013-01-08 18:25:00,50.7,43.0,30.35,ESE,104,6.0,-999.0,76,-99.99,,,0.02,weatherlink.com 1.10,2013-01-09 00:25:00,
2013-01-08 18:40:00,50.4,43.0,30.35,SE,127,2.0,-999.0,77,-99.99,,,0.02,weatherlink.com 1.10,2013-01-09 00:40:00,
2013-01-08 18:55:00,50.4,44.0,30.36,ESE,122,1.0,-999.0,78,-99.99,,,0.02,weatherlink.com 1.10,2013-01-09 00:55:00,
2013-01-08 19:10:00,50.5,44.0,30.36,SE,139,2.0,-999.0,77,-99.99,,,0.02,weatherlink.com 1.10,2013-01-09 01:10:00,
2013-01-08 19:25:00,50.4,44.0,30.36,East,99,2.0,-999.0,78,-99.99,,,0.02,weatherlink.com 1.10,2013-01-09 01:25:00,
2013-01-08 19:40:00,50.1,44.0,30.36,SE,136,5.0,-999.0,78,-99.99,,,0.02,weatherlink.com 1.10,2013-01-09 01:40:00,
2013-01-08 19:55:00,49.9,44.0,30.36,ESE,119,6.0,-999.0,79,-99.99,,,0.02,weatherlink.com 1.10,2013-01-09 01:55:00,
2013-01-08 20:10:00,49.6,43.0,30.36,SE,133,2.0,-999.0,79,-99.99,,,0.03,weatherlink.com 1.10,2013-01-09 02:10:00,
2013-01-08 20:25:00,49.4,43.0,30.36,ESE,123,4.0,-999.0,79,-99.99,,,0.03,weatherlink.com 1.10,2013-01-09 02:25:00,
2013-01-08 20:40:00,49.3,43.0,30.36,SE,138,6.0,-999.0,79,-99.99,,,0.03,weatherlink.com 1.10,2013-01-09 02:40:00,
2013-01-08 20:55:00,49.2,43.0,30.35,SE,134,4.0,-999.0,80,-99.99,,,0.03,weatherlink.com 1.10,2013-01-09 02:55:00,
2013-01-08 21:25:00,48.7,44.0,30.35,SE,130,5.0,-999.0,83,-99.99,,,0.03,weatherlink.com 1.10,2013-01-09 03:25:00,
2013-01-08 21:40:00,48.6,44.0,30.34,ESE,115,5.0,-999.0,84,-99.99,,,0.03,weatherlink.com 1.10,2013-01-09 03:40:00,
2013-01-08 21:55:00,48.4,44.0,30.35,SSE,150,5.0,-999.0,84,-99.99,,,0.03,weatherlink.com 1.10,2013-01-09 03:55:00,
2013-01-08 22:10:00,48.2,44.0,30.36,ESE,113,5.0,-999.0,85,-99.99,,,0.03,weatherlink.com 1.10,2013-01-09 04:10:00,
2013-01-08 22:25:00,48.2,44.0,30.35,SE,143,2.0,-999.0,86,-99.99,,,0.03,weatherlink.com 1.10,2013-01-09 04:25:00,
2013-01-08 22:40:00,48.5,45.0,30.36,SE,130,5.0,-999.0,86,-99.99,,,0.03,weatherlink.com 1.10,2013-01-09 04:40:00,
2013-01-08 22:55:00,48.8,45.0,30.36,SE,145,2.0,-999.0,86,-99.99,,,0.03,weatherlink.com 1.10,2013-01-09 04:55:00,
2013-01-08 23:10:00,49.3,45.0,30.37,SSE,152,5.0,-999.0,86,-99.99,,,0.03,weatherlink.com 1.10,2013-01-09 05:10:00,
2013-01-08 23:25:00,49.9,46.0,30.37,SE,141,7.0,-999.0,85,-99.99,,,0.03,weatherlink.com 1.10,2013-01-09 05:25:00,
2013-01-08 23:40:00,50.1,46.0,30.37,SSE,151,8.0,-999.0,85,-99.99,,,0.03,weatherlink.com 1.10,2013-01-09 05:40:00,
2013-01-08 23:55:00,50.1,46.0,30.36,SE,144,6.0,-999.0,85,-99.99,,,0.03,weatherlink.com 1.10,2013-01-09 05:55:00,